Waterville, ME

11:56 AM EDT on March 25, 2017 (GMT -0400)
Waterville Lafleur

Weather History for KWVL - December, 2012

Change the Weather History Date:

Sunday, December 9, 2012

  Actual Average Record
Temperature  
Mean Temperature 36 °F -  
Max Temperature 42 °F 34 °F 55 °F (1974)
Min Temperature 30 °F 15 °F -16 °F (1989)
Degree Days  
Heating Degree Days 29    
Moisture  
Dew Point 27 °F    
Average Humidity 73    
Maximum Humidity 100    
Minimum Humidity 46    
Precipitation  
Precipitation 0.00 in - - ()
Sea Level Pressure  
Sea Level Pressure 30.13 in    
Wind  
Wind Speed 5 mph (NNW)    
Max Wind Speed 14 mph    
Max Gust Speed 18 mph    
Visibility 8 miles    
Events      
Averages and records for this station are not official NWS values.
T = Trace of Precipitation, MM = Missing Value Source: NWS Daily Summary

Daily Weather History Graph

Daily Weather History Graph

Search for Another Location

Airport or City:

Trip Planner

Search our weather history database for the weather conditions in past years. The results will help you decide how hot, cold, wet, or windy it might be!

Date:

Astronomy

Dec. 09, 2012 Rise Set
Actual Time 7:03 AM EST 3:58 PM EST
Civil Twilight 6:30 AM EST 4:31 PM EST
Nautical Twilight 5:53 AM EST 5:08 PM EST
Astronomical Twilight 5:18 AM EST 5:44 PM EST
Moon 2:25 AM EST (12/9) 1:09 PM EST (12/9)
Length of Visible Light 10h 01m
Length of Day
8h 54m
Waning Crescent, 19% of the Moon is Illuminated
Dec 9
Waning Crescent
Dec 13
New
Dec 20
First Quarter
Dec 28
Full
Jan 4
Last Quarter

Hourly Weather History & Observations

Time (EST) Temp. Windchill Dew Point Humidity Pressure Visibility Wind Dir Wind Speed Gust Speed Precip Events Conditions
12:15 AM 33.8 °F 29.6 °F 33.8 °F 100% 29.84 in 0.8 mi South 4.6 mph - N/A   Overcast
12:35 AM 33.8 °F 27.7 °F 33.8 °F 100% 29.84 in 0.5 mi SSW 6.9 mph - N/A   Overcast
12:55 AM 35.6 °F 30.7 °F 33.8 °F 93% 29.86 in 0.5 mi SW 5.8 mph - N/A   Overcast
1:15 AM 35.6 °F 28.6 °F 33.8 °F 93% 29.86 in 0.5 mi SW 9.2 mph - N/A   Overcast
1:36 AM 35.6 °F 29.2 °F 33.8 °F 93% 29.87 in 0.8 mi SSW 8.1 mph - N/A   Overcast
1:55 AM 35.6 °F 28.6 °F 33.8 °F 93% 29.89 in 0.8 mi SW 9.2 mph - N/A   Overcast
2:15 AM 35.6 °F 29.2 °F 33.8 °F 93% 29.90 in 0.8 mi SSW 8.1 mph - N/A   Overcast
2:35 AM 35.6 °F - 33.8 °F 93% 29.92 in 0.5 mi Calm Calm - N/A   Overcast
2:55 AM 35.6 °F 32.8 °F 35.6 °F 100% 29.92 in 0.8 mi WSW 3.5 mph - N/A   Overcast
3:15 AM 35.6 °F - 33.8 °F 93% 29.94 in 1.2 mi Calm Calm - N/A   Overcast
3:35 AM 33.8 °F 30.8 °F 32.0 °F 93% 29.94 in 0.5 mi SW 3.5 mph - N/A   Overcast
3:55 AM 33.8 °F 28.6 °F 32.0 °F 93% 29.95 in 0.2 mi WSW 5.8 mph - N/A   Overcast
4:15 AM 35.6 °F 31.7 °F 35.6 °F 100% 29.96 in 9.0 mi West 4.6 mph - N/A   Scattered Clouds
4:35 AM 35.6 °F 32.8 °F 33.8 °F 93% 29.97 in 10.0 mi South 3.5 mph - N/A   Clear
4:55 AM 33.8 °F - 32.0 °F 93% 29.99 in 2.0 mi Calm Calm - N/A   Clear
5:15 AM 33.8 °F - 33.8 °F 100% 30.00 in 8.0 mi Calm Calm - N/A   Partly Cloudy
5:35 AM 33.8 °F - 32.0 °F 93% 30.01 in 10.0 mi Calm Calm - N/A   Mostly Cloudy
5:55 AM 33.8 °F 29.6 °F 33.8 °F 100% 30.03 in 8.0 mi WNW 4.6 mph - N/A   Scattered Clouds
6:15 AM 35.6 °F 31.7 °F 32.0 °F 87% 30.05 in 10.0 mi West 4.6 mph - N/A   Clear
6:35 AM 33.8 °F 29.6 °F 32.0 °F 93% 30.06 in 10.0 mi SSE 4.6 mph - N/A   Scattered Clouds
6:55 AM 35.6 °F - 33.8 °F 93% 30.07 in 10.0 mi Calm Calm - N/A   Mostly Cloudy
7:15 AM 35.6 °F 30.7 °F 30.2 °F 81% 30.08 in 10.0 mi WSW 5.8 mph - N/A   Mostly Cloudy
7:35 AM 37.4 °F 31.4 °F 30.2 °F 75% 30.10 in 10.0 mi WNW 8.1 mph - N/A   Clear
7:55 AM 37.4 °F 30.3 °F 30.2 °F 75% 30.12 in 10.0 mi WNW 10.4 mph - N/A   Clear
8:15 AM 39.2 °F 32.5 °F 30.2 °F 70% 30.14 in 10.0 mi NW 10.4 mph - N/A   Clear
8:35 AM 39.2 °F 34.2 °F 28.4 °F 65% 30.15 in 10.0 mi WNW 6.9 mph - N/A   Clear
9:15 AM 41.0 °F 35.2 °F 28.4 °F 61% 30.16 in 10.0 mi West 9.2 mph - N/A   Clear
9:35 AM 41.0 °F 33.5 °F 26.6 °F 57% 30.16 in 10.0 mi West 13.8 mph 18.4 mph N/A   Clear
9:55 AM 41.0 °F 35.8 °F 26.6 °F 57% 30.18 in 10.0 mi NW 8.1 mph - N/A   Clear
10:15 AM 41.0 °F 35.8 °F 26.6 °F 57% 30.18 in 10.0 mi NW 8.1 mph - N/A   Mostly Cloudy
10:35 AM 42.8 °F 38.0 °F 28.4 °F 57% 30.18 in 10.0 mi NW 8.1 mph - N/A   Scattered Clouds
10:55 AM 41.0 °F 34.3 °F 26.6 °F 57% 30.18 in 10.0 mi NW 11.5 mph 18.4 mph N/A   Clear
11:15 AM 41.0 °F 35.8 °F 26.6 °F 57% 30.18 in 10.0 mi NW 8.1 mph - N/A   Clear
11:35 AM 42.8 °F 38.6 °F 26.6 °F 53% 30.18 in 10.0 mi WNW 6.9 mph - N/A   Clear
11:55 AM 42.8 °F 38.6 °F 26.6 °F 53% 30.18 in 10.0 mi North 6.9 mph - N/A   Partly Cloudy
12:15 PM 42.8 °F 38.0 °F 26.6 °F 53% 30.18 in 10.0 mi WNW 8.1 mph - N/A   Partly Cloudy
12:35 PM 42.8 °F 37.5 °F 24.8 °F 49% 30.18 in 10.0 mi NNW 9.2 mph - N/A   Clear
12:55 PM 42.8 °F 38.6 °F 24.8 °F 49% 30.18 in 10.0 mi NW 6.9 mph - N/A   Clear
1:15 PM 42.8 °F 38.0 °F 24.8 °F 49% 30.17 in 10.0 mi North 8.1 mph - N/A   Clear
1:55 PM 42.8 °F 38.0 °F 24.8 °F 49% 30.18 in 10.0 mi NNW 8.1 mph - N/A   Clear
2:15 PM 42.8 °F 38.0 °F 23.0 °F 46% 30.18 in 10.0 mi North 8.1 mph - N/A   Clear
2:35 PM 41.0 °F 38.0 °F 24.8 °F 53% 30.20 in 10.0 mi NNE 4.6 mph - N/A   Clear
2:55 PM 41.0 °F 38.0 °F 24.8 °F 53% 30.20 in 10.0 mi NNE 4.6 mph - N/A   Clear
3:15 PM 39.2 °F 35.0 °F 24.8 °F 56% 30.22 in 10.0 mi NNE 5.8 mph - N/A   Clear
3:35 PM 39.2 °F - 23.0 °F 52% 30.22 in 10.0 mi Calm Calm - N/A   Clear
3:55 PM 37.4 °F - 24.8 °F 60% 30.23 in 10.0 mi Calm Calm - N/A   Clear
4:15 PM 37.4 °F - 24.8 °F 60% 30.25 in 10.0 mi Calm Calm - N/A   Clear
4:55 PM 33.8 °F 28.6 °F 23.0 °F 65% 30.27 in 10.0 mi NW 5.8 mph - N/A   Clear
5:15 PM 33.8 °F 28.6 °F 24.8 °F 70% 30.27 in 10.0 mi NNW 5.8 mph - N/A   Clear
5:35 PM 33.8 °F 29.6 °F 23.0 °F 65% 30.28 in 10.0 mi North 4.6 mph - N/A   Clear
5:55 PM 32.0 °F 28.7 °F 23.0 °F 69% 30.29 in 10.0 mi NNE 3.5 mph - N/A   Clear
6:15 PM 33.8 °F 29.6 °F 23.0 °F 65% 30.30 in 10.0 mi NNE 4.6 mph - N/A   Scattered Clouds
6:35 PM 33.8 °F 27.7 °F 23.0 °F 65% 30.29 in 10.0 mi North 6.9 mph - N/A   Mostly Cloudy
6:55 PM 33.8 °F 29.6 °F 21.2 °F 60% 30.29 in 10.0 mi NNE 4.6 mph - N/A   Partly Cloudy
7:15 PM 32.0 °F 27.5 °F 21.2 °F 64% 30.29 in 10.0 mi NE 4.6 mph - N/A   Partly Cloudy
7:35 PM 32.0 °F 28.7 °F 23.0 °F 69% 30.28 in 10.0 mi NE 3.5 mph - N/A   Scattered Clouds
7:55 PM 30.2 °F - 23.0 °F 75% 30.28 in 10.0 mi Calm Calm - N/A   Clear
8:15 PM 30.2 °F 25.4 °F 21.2 °F 69% 30.29 in 10.0 mi NE 4.6 mph - N/A   Clear
8:35 PM 32.0 °F 27.5 °F 23.0 °F 69% 30.28 in 10.0 mi NNE 4.6 mph - N/A   Mostly Cloudy
8:55 PM 32.0 °F 25.6 °F 21.2 °F 64% 30.27 in 10.0 mi NNE 6.9 mph - N/A   Overcast
9:15 PM 32.0 °F 28.7 °F 23.0 °F 69% 30.28 in 10.0 mi NE 3.5 mph - N/A   Overcast
9:35 PM 32.0 °F 27.5 °F 23.0 °F 69% 30.27 in 10.0 mi NNE 4.6 mph - N/A   Mostly Cloudy
9:55 PM 30.2 °F 25.4 °F 23.0 °F 75% 30.27 in 10.0 mi NE 4.6 mph - N/A   Mostly Cloudy
10:15 PM 30.2 °F 24.3 °F 23.0 °F 75% 30.25 in 10.0 mi NE 5.8 mph - N/A   Overcast
10:35 PM 30.2 °F 24.3 °F 23.0 °F 75% 30.24 in 10.0 mi NE 5.8 mph - N/A   Overcast
11:15 PM 30.2 °F 26.7 °F 23.0 °F 75% 30.23 in 10.0 mi ENE 3.5 mph - N/A   Overcast
11:35 PM 30.2 °F - 23.0 °F 75% 30.23 in 10.0 mi Calm Calm - N/A   Overcast
11:55 PM 30.2 °F - 23.0 °F 75% 30.22 in 10.0 mi Calm Calm - N/A   Overcast